Location: Moscow
(30.9132°N, 94.8252°W)
Time: 12:54:06
(UTC+00:00)

SJ 16-02 - Pass Details

Date: 15 November 2025
Orbit: 585 x 594 km, 75.0° (Epoch: 11 December)

Event Time Altitude Azimuth Distance (km) Brightness Sun altitude
Rises 01:43:58 0° 228° (SW) 2,821 5.5 -30.5°
Reaches altitude 10° 01:46:43 10° 246° (WSW) 1,924 4.7 -31.1°
Maximum altitude 01:49:49 19° 292° (WNW) 1,422 3.8 -31.7°
Enters shadow 01:51:09 17° 316° (NW) 1,531 3.7 -32.0°
